Flag for Germany Weather past 2 weeks in Pirna, Saxony, Germany

Now
38 °F

Sprinkles. Overcast.


Feels Like: 30 °F
Forecast: 35 / 39 °F
Wind: 10 mph from West

Location: Dresden-Klotzsche

Current Time: Apr 1, 2015 at 11:49:21 AM

Latest Report: Apr 1, 2015 at 11:00 AM


Visibility: 13 mi

Pressure: 29.79 "Hg

Humidity: 82%

Dew point: 32 °F

Location of PirnaLocation

Historic Weather in Pirna — Graph

°F

Pirna temperature yesterday

Maximum temperature yesterday: 53 °F (at 3:00 PM)
Minimum temperature yesterday: 33 °F (at 7:00 AM)
Average temperature yesterday: 43 °F

Past Weeks' High & Low Weather Summary

 TemperatureHumidityPressure
High64 °F (Mar 25, 3:00 PM)99% (Mar 27, 12:00 AM)30.38 "Hg (Mar 27, 12:00 AM)
Low26 °F (Mar 23, 3:00 AM)26% (Mar 19, 4:00 PM)29.18 "Hg (Mar 31, 10:00 AM)
Average44 °F70%29.94 "Hg
* Reported Mar 17 9:00 AM — Apr 1 10:00 AM, Pirna, Weather by CustomWeather, © 2015

Note: Actual official high and low records may vary slightly from our data, if they occured in-between our weather recording intervals... More about our weather records

Advertising

Pirna weather history for previous 24 hours

 ConditionsComfort  
Time TempWeatherWind HumidityBarometerVisibility
10:00 AM
Wed, Apr 1
38 °FOvercast.12 mph77%29.76 "Hg22 mi
9:00 AM37 °FLight mixture of precip. Low clouds.10 mph82%29.73 "Hg12 mi
8:00 AM37 °FOvercast.13 mph80%29.70 "Hg19 mi
7:00 AM36 °FLight mixture of precip. Low clouds.14 mph82%29.67 "Hg9 mi
6:00 AM36 °FOvercast.13 mph82%29.66 "Hg22 mi
4:00 AM39 °FOvercast.12 mph77%29.62 "Hg22 mi
3:00 AM40 °FOvercast.13 mph67%29.61 "Hg25 mi
2:00 AM40 °FOvercast.12 mph70%29.59 "Hg25 mi
1:00 AM39 °FPassing clouds.10 mph75%29.60 "Hg25 mi
12:00 AM39 °FOvercast.13 mph77%29.59 "Hg25 mi
10:00 PM
Tue, Mar 31
42 °FPassing clouds.12 mph63%29.54 "Hg28 mi
9:00 PM42 °FSleet. Overcast.17 mph70%29.50 "Hg16 mi
8:00 PM45 °FOvercast.12 mph66%29.44 "Hg34 mi
7:00 PM44 °FOvercast.13 mph77%29.41 "Hg31 mi
6:00 PM47 °FThunderstorms. Scattered clouds.18 mph65%29.32 "Hg19 mi
5:00 PM51 °FThunderstorms. Scattered clouds.17 mph58%29.26 "Hg25 mi
4:00 PM48 °FSprinkles. Overcast.17 mph67%29.26 "Hg11 mi
3:00 PM53 °FPartly sunny.15 mph60%29.23 "Hg28 mi
2:00 PM50 °FOvercast.13 mph74%29.23 "Hg31 mi
1:00 PM47 °FPartly sunny.12 mph78%29.23 "Hg25 mi
12:00 PM44 °FLight rain. Low clouds.14 mph88%29.23 "Hg9 mi
Weather by CustomWeather, © 2015

See weather overviewHow to use our weather pages